[[{"header":{"parameterUnit":"m.s-1","parameterCategory":1,"la1":30.2991,"la2":30.254,"lo1":-89.0895,"lo2":-89.0444,"dy":0.0017,"dx":0.0017,"nx":28,"ny":28,"refTime":"2025-06-08T03:00:00:Z","depth":0,"parameterNumber":2,"parameterNumberName":"U-component_of_WINDS"},"data":[0,0,0,0,0,0,0,0,0,0,0,0,0,0,0,0,0,0,0,0,0,0,0,0,0,0,0,0,0,0,0,0,0,0,0,0,0,0,0,0,0,0,0,0,0,0,0,0,0,0,0,0,0,0,0,0,0,0,5.0136,5.0137,0,5.0237,5.0238,5.0239,5.0217,5.0215,5.0213,5.0211,5.0316,5.0321,5.0325,0,0,0,0,0,0,0,0,0,0,0,0,0,4.9927,4.9931,5.0136,5.0137,5.0139,5.0237,5.0238,5.0239,5.0217,5.0215,5.0213,5.0211,5.0315,5.032,5.0326,0,0,0,0,0,0,0,0,0,0,0,0,0,5.0022,4.9932,5.0136,5.0139,5.0141,5.0236,5.0238,5.024,5.0218,5.0215,5.0212,5.021,5.0313,5.032,5.0327,5.0425,0,0,5.0347,5.035,0,0,0,0,0,0,0,0,5.0016,5.003,5.0138,5.0139,5.0141,5.0211,5.0203,5.0302,5.0219,5.0189,5.0211,5.0208,5.0284,5.0293,5.0318,5.043,5.0435,5.0348,5.0352,5.0355,5.0357,0,0,0,0,0,0,0,5.001,5.0025,5.0176,5.0139,5.0141,5.0137,5.0147,5.0221,5.0251,5.0191,5.019,5.0202,5.0284,5.0312,5.032,5.0436,5.0348,5.0354,5.0358,5.0361,5.0635,5.0639,0,0,0,0,0,0,5.0002,5.002,5.0173,5.0179,5.007,5.0143,5.0154,5.0192,5.025,5.0256,5.0204,5.02,5.0301,5.0312,5.0324,5.0444,5.0355,5.0361,5.0365,5.0632,5.0636,5.064,0,0,0,0,0,0,4.9997,5.0015,5.0169,5.0099,5.0118,5.0149,5.0192,5.0195,5.0222,5.026,5.0265,5.0226,5.03,5.0314,5.04,5.0447,5.0365,5.0371,5.0629,5.0634,5.0638,5.0684,0,0,0,0,0,0,4.9991,5.0014,5.0051,5.01,5.0122,5.0243,5.0194,5.0199,5.0234,5.023,5.0282,5.0288,5.0298,5.039,5.0407,5.0455,5.0376,5.0624,5.0631,5.0636,5.0679,5.069,5.07,0,0,0,0,0,4.9984,5.0061,5.0053,5.0072,5.0169,5.0246,5.0258,5.0268,5.0238,5.0276,5.03,5.0287,5.0439,5.0399,5.0418,5.0469,5.0622,5.0629,5.0636,5.0674,5.0688,5.0699,0,0,0,0,0,0,5.0017,5.0067,5.006,5.0154,5.0196,5.0242,5.029,5.0282,5.0333,5.0328,5.0338,5.035,5.0438,5.0462,5.0416,5.0568,5.0526,5.0538,5.0549,5.0562,5.0573,5.0565,5.0382,0,0,0,0,0,5.0035,5.0093,5.0133,5.0213,5.0234,5.0259,5.0292,5.0296,5.034,5.0357,5.0388,5.0431,5.0489,5.0527,5.0582,5.0682,5.0693,5.0726,5.0737,5.0745,5.0755,5.081,5.0825,5.0663,5.0663,5.0663,0,0,5.0074,5.0108,5.0144,5.0221,5.0253,5.0313,5.0274,5.0338,5.0383,5.0367,5.045,5.0474,5.0524,5.0617,5.066,5.064,5.0802,5.0755,5.0761,5.0766,5.0819,5.0834,5.0848,5.0668,5.0667,5.0667,0,0,5.0174,5.0206,5.0276,5.031,5.0359,5.0375,5.0392,5.044,5.0455,5.0538,5.0528,5.0581,5.0681,5.0716,5.0747,5.0862,5.0852,5.088,5.0935,5.0988,5.1001,5.1012,5.1053,5.1068,5.0889,5.089,5.089,0,5.0216,5.0305,5.0313,5.0379,5.0413,5.0402,5.0473,5.0505,5.0571,5.0595,5.0572,5.0697,5.0729,5.0831,5.0859,5.0884,5.0904,5.0874,5.0998,5.101,5.1021,5.106,5.1075,5.0893,5.0892,5.0892,5.0892,0,5.0354,5.0416,5.0466,5.053,5.057,5.0638,5.0657,5.0697,5.0698,5.0716,5.0801,5.084,5.0903,5.0927,5.0929,5.103,5.1016,5.0996,5.0954,5.1039,5.1076,5.1091,5.0897,5.0896,5.0895,5.0894,0,0,5.0478,5.0545,5.0563,5.0592,5.0646,5.0695,5.0763,5.0824,5.0858,5.0904,5.0961,5.1046,5.1028,5.1063,5.1068,5.1115,5.1204,5.1089,5.1091,5.1109,5.1318,5.1332,5.135,5.1198,5.12,5.1203,5.1314,0,5.0583,5.0702,5.0712,5.082,5.0878,5.0868,5.0927,5.0967,5.0987,5.1039,5.106,5.112,5.1091,5.1113,5.1159,5.1183,5.1246,5.1176,5.1252,5.1254,5.1239,5.1369,5.1385,5.1487,5.1328,5.1331,5.1332,0,5.0722,5.0772,5.0885,5.0931,5.0956,5.1009,5.1066,5.1116,5.1162,5.1172,5.1212,5.1211,5.1282,5.1238,5.1336,5.1288,5.132,5.1337,5.1341,5.1348,5.1298,5.138,5.152,5.1536,5.1355,5.1353,5.1352,0,5.0801,5.0896,5.0976,5.1001,5.1058,5.1095,5.1121,5.1163,5.12,5.125,5.1273,5.1331,5.1363,5.1408,5.1423,5.139,5.1521,5.1478,5.1532,5.1532,5.156,5.1558,5.1707,5.1581,5.1581,5.158,5.158,0,5.0918,5.0988,5.1013,5.1062,5.114,5.1151,5.1228,5.1252,5.129,5.1344,5.1339,5.139,5.1407,5.1461,5.1474,5.1553,5.1568,5.1579,5.1581,5.1579,5.1577,5.1599,5.1593,5.1585,5.1584,5.1583,5.1582,0,5.1019,5.1039,5.1126,5.1172,5.1185,5.1241,5.128,5.1328,5.1347,5.1415,5.1432,5.1461,5.1525,5.1544,5.1621,5.1629,5.1722,5.1718,5.1707,5.1707,5.176,5.1754,5.1928,5.1952,5.181,5.1812,5.1813,0,5.1092,5.1146,5.1198,5.1233,5.126,5.1318,5.1354,5.1368,5.1406,5.1462,5.1504,5.1566,5.1617,5.1719,5.1748,5.1806,5.1804,5.1861,5.1813,5.1809,5.1804,5.1801,5.1806,5.187,5.1871,5.1872,5.1873,0,5.122,5.1227,5.128,5.1337,5.1381,5.1426,5.147,5.15,5.1519,5.1563,5.1627,5.1667,5.1745,5.1807,5.1867,5.1894,5.1887,5.1888,5.1904,5.1902,5.1893,5.1898,5.1731,5.1884,5.1883,5.1882,5.1882,5.1881,5.131,5.1356,5.14,5.146,5.1494,5.1535,5.1582,5.1606,5.166,5.1724,5.1729,5.1799,5.1844,5.1923,5.1953,5.2008,5.1992,5.2015,5.202,5.2025,5.203,5.1884,5.2019,5.2019,5.2019,5.2019,5.2018,0,5.1437,5.1465,5.1519,5.158,5.1627,5.1616,5.1664,5.1704,5.1765,5.1808,5.1857,5.1932,5.1992,5.2026,5.2086,5.2124,5.2123,5.214,5.2137,5.2143,5.2041,5.2021,5.214,5.214,5.214,5.214,5.214,5.214,5.1508,5.1587,5.16,5.1696,5.1723,5.1791,5.182,5.1858,5.1891,5.1974,5.2024,5.2045,5.2084,5.2147,5.2203,5.2211,5.2233,5.2252,5.2259,5.2163,5.215,5.2138,5.212,5.2257,5.2257,5.2356,5.2357,5.2358]},{"header":{"parameterUnit":"m.s-1","parameterCategory":1,"la1":30.2991,"la2":30.254,"lo1":-89.0895,"lo2":-89.0444,"dy":0.0017,"dx":0.0017,"nx":28,"ny":28,"refTime":"2025-06-08T03:00:00:Z","depth":0,"parameterNumber":3,"parameterNumberName":"V-component_of_WINDS"},"data":[0,0,0,0,0,0,0,0,0,0,0,0,0,0,0,0,0,0,0,0,0,0,0,0,0,0,0,0,0,0,0,0,0,0,0,0,0,0,0,0,0,0,0,0,0,0,0,0,0,0,0,0,0,0,0,0,0,0,1.789,1.789,0,1.7924,1.7925,1.7925,1.7922,1.7922,1.7921,1.7921,1.7955,1.7956,1.7957,0,0,0,0,0,0,0,0,0,0,0,0,0,1.7818,1.782,1.789,1.789,1.789,1.7924,1.7925,1.7925,1.7922,1.7922,1.7921,1.792,1.7954,1.7956,1.7958,0,0,0,0,0,0,0,0,0,0,0,0,0,1.7851,1.782,1.789,1.7893,1.7894,1.7924,1.7925,1.7925,1.7922,1.7922,1.7921,1.792,1.7954,1.7956,1.7958,1.7987,0,0,1.7964,1.7965,0,0,0,0,0,0,0,0,1.7849,1.7853,1.7892,1.7893,1.7894,1.7918,1.7912,1.7946,1.7923,1.7911,1.7921,1.792,1.7943,1.7946,1.7954,1.7988,1.799,1.7964,1.7966,1.7967,1.7967,0,0,0,0,0,0,0,1.7847,1.7852,1.7903,1.7893,1.7894,1.7892,1.7896,1.7919,1.7931,1.7912,1.7912,1.7916,1.7943,1.7952,1.7955,1.799,1.7964,1.7966,1.7967,1.7968,1.8048,1.8049,0,0,0,0,0,0,1.7844,1.785,1.7902,1.7904,1.7869,1.7894,1.7898,1.7911,1.7931,1.7933,1.7917,1.7916,1.7949,1.7953,1.7956,1.799,1.7967,1.7969,1.797,1.8047,1.8048,1.8049,0,0,0,0,0,0,1.7842,1.7849,1.7901,1.7877,1.7884,1.7896,1.7911,1.7912,1.7921,1.7935,1.7937,1.7924,1.7948,1.7953,1.7979,1.7991,1.7969,1.7971,1.8046,1.8047,1.8049,1.8059,0,0,0,0,0,0,1.784,1.7848,1.786,1.7878,1.7885,1.7924,1.7911,1.7913,1.7925,1.7924,1.7942,1.7944,1.7948,1.7976,1.7981,1.7994,1.7973,1.8045,1.8047,1.8048,1.8058,1.8061,1.8063,0,0,0,0,0,1.7838,1.7861,1.786,1.7867,1.79,1.7924,1.7929,1.7934,1.7926,1.7937,1.7946,1.7943,1.7989,1.7978,1.7984,1.7998,1.8044,1.8046,1.8048,1.8057,1.806,1.8063,0,0,0,0,0,0,1.7845,1.7864,1.7863,1.7893,1.7907,1.7924,1.7938,1.7938,1.7954,1.7952,1.7958,1.7962,1.7987,1.7995,1.7983,1.8026,1.8016,1.8019,1.802,1.8024,1.8026,1.8024,1.7975,0,0,0,0,0,1.785,1.7868,1.7884,1.7909,1.7916,1.7926,1.7937,1.794,1.7954,1.796,1.797,1.7984,1.8002,1.8013,1.803,1.8059,1.8062,1.8071,1.8074,1.8076,1.8079,1.8094,1.8098,1.8055,1.8055,1.8055,0,0,1.786,1.7873,1.7884,1.7911,1.7922,1.794,1.7931,1.7951,1.7965,1.7963,1.7988,1.7996,1.8011,1.8039,1.8051,1.8046,1.8091,1.8079,1.808,1.8082,1.8096,1.81,1.8103,1.8057,1.8057,1.8056,0,0,1.7888,1.7901,1.7922,1.7934,1.7951,1.7957,1.7962,1.7979,1.7984,1.8009,1.8008,1.8024,1.8054,1.8065,1.8074,1.8106,1.8104,1.8111,1.8125,1.814,1.8143,1.8146,1.8156,1.816,1.8114,1.8114,1.8114,0,1.7899,1.7928,1.7933,1.7954,1.7965,1.7964,1.7985,1.7996,1.8017,1.8025,1.8019,1.8056,1.8067,1.8096,1.8104,1.8112,1.8117,1.8109,1.8142,1.8145,1.8148,1.8158,1.8162,1.8115,1.8114,1.8114,1.8114,0,1.794,1.7959,1.7975,1.7996,1.8009,1.8029,1.8037,1.8049,1.805,1.8057,1.8082,1.8094,1.8113,1.812,1.8122,1.815,1.8146,1.8141,1.813,1.8153,1.8162,1.8166,1.8116,1.8115,1.8115,1.8115,0,0,1.7974,1.7997,1.8002,1.8012,1.803,1.8045,1.8065,1.8084,1.8094,1.8109,1.8125,1.815,1.8146,1.8156,1.8159,1.8172,1.8195,1.8165,1.8166,1.817,1.8225,1.8228,1.8232,1.8193,1.8194,1.8195,1.8223,0,1.8003,1.804,1.8045,1.8077,1.8094,1.8093,1.8111,1.8123,1.813,1.8145,1.8152,1.817,1.8163,1.8169,1.8182,1.8189,1.8206,1.8187,1.8208,1.8209,1.8204,1.8237,1.8241,1.8267,1.8227,1.8228,1.8228,0,1.8043,1.8059,1.8093,1.8108,1.8115,1.8131,1.8148,1.8163,1.8177,1.8181,1.8192,1.8193,1.8213,1.8202,1.8229,1.8216,1.8225,1.8229,1.823,1.8232,1.8219,1.8239,1.8276,1.8279,1.8234,1.8234,1.8233,0,1.8064,1.8093,1.8117,1.8125,1.8144,1.8154,1.8162,1.8176,1.8186,1.8201,1.8208,1.8225,1.8234,1.8246,1.8251,1.8242,1.8277,1.8266,1.828,1.828,1.8287,1.8287,1.8325,1.8294,1.8294,1.8294,1.8293,0,1.8096,1.8116,1.8126,1.8141,1.8163,1.8169,1.819,1.8198,1.821,1.8225,1.8225,1.8239,1.8245,1.826,1.8264,1.8285,1.8289,1.8292,1.8293,1.8292,1.8291,1.8297,1.8295,1.8295,1.8294,1.8294,1.8294,0,1.8123,1.813,1.8156,1.8171,1.8176,1.8191,1.8204,1.8218,1.8224,1.8243,1.8248,1.8257,1.8275,1.8281,1.8302,1.8304,1.8329,1.8328,1.8324,1.8324,1.8337,1.8336,1.838,1.8386,1.8351,1.8352,1.8352,0,1.8143,1.8158,1.8175,1.8186,1.8194,1.8211,1.8222,1.8227,1.8238,1.8255,1.8266,1.8284,1.8298,1.8326,1.8334,1.835,1.8349,1.8363,1.8351,1.835,1.8348,1.8347,1.8348,1.8366,1.8366,1.8366,1.8367,0,1.8177,1.818,1.8196,1.8213,1.8226,1.8239,1.8253,1.8261,1.8268,1.828,1.8298,1.8309,1.8331,1.8348,1.8364,1.8371,1.837,1.837,1.8374,1.8373,1.837,1.8371,1.833,1.8369,1.8369,1.8369,1.8369,1.8369,1.82,1.8214,1.8228,1.8245,1.8256,1.8268,1.8281,1.8289,1.8304,1.8322,1.8324,1.8343,1.8356,1.8377,1.8385,1.84,1.8396,1.8401,1.8403,1.8404,1.8405,1.8368,1.8403,1.8403,1.8403,1.8402,1.8402,0,1.8234,1.8243,1.8259,1.8277,1.8291,1.8289,1.8303,1.8314,1.8331,1.8343,1.8357,1.8377,1.8393,1.8403,1.8418,1.8428,1.8428,1.8432,1.8431,1.8433,1.8408,1.8402,1.8432,1.8432,1.8432,1.8432,1.8432,1.8432,1.8253,1.8276,1.828,1.8307,1.8316,1.8335,1.8343,1.8354,1.8363,1.8386,1.8399,1.8406,1.8416,1.8433,1.8447,1.8449,1.8455,1.8459,1.8461,1.8438,1.8435,1.8432,1.8427,1.8461,1.8461,1.8485,1.8485,1.8485]}]]